View from above orbital plane
|
View from above satellite
|
Ground track
|
The orbit data is extracted from the following two-line orbital elements,
1 23560U 95021A 21059.52745156 .00001072 00000-0 48439-4 0 9997
2 23560 98.5550 254.4879 0003989 36.3850 323.7654 15.23699043381131
Epoch (UTC): | 28 February 2021 12:39:31 |
Eccentricity: | 0.0003989 |
inclination: | 98.5550° |
perigee height: | 492 km |
apogee height: | 497 km |
right ascension of ascending node: | 254.4879° |
argument of perigee: | 36.3850° |
revolutions per day: | 15.23699043 |
mean anomaly at epoch: | 323.7654° |
orbit number at epoch: | 38113 |
The dashed part of the orbit path shows where the satellite is in the earth's shadow,
|
|